Location: Newark
(25.4297°S, 49.2719°W)
Time: 12:46:35
(UTC+00:00)

Tiros 1 - Pass Details

Date: 23 November 2019
Orbit: 630 x 664 km, 48.4° (Epoch: 13 December)

Event Time Altitude Azimuth Distance (km) Brightness Sun altitude
Exits shadow 04:43:42 10° 192° (SSW) 2,071 10.2 -38.2°
Drops below altitude 10° 04:43:59 10° 188° (S) 2,101 10.2 -38.2°
Sets 04:48:09 0° 154° (SSE) 3,018 11.5 -37.7°
